Location: ?????
(31.7405°N, 35.1927°E)
Time: 20:01:35
(UTC+00:00)

Lacrosse 4 Rocket - Pass Details

Date: 17 February 2020
Orbit: 537 x 622 km, 68.0° (Epoch: 30 March)

Event Time Altitude Azimuth Distance (km) Brightness Sun altitude
Exits shadow 03:03:31 22° 232° (SW) 1,347 2.9 -16.9°
Drops below altitude 10° 03:06:06 10° 199° (SSW) 1,977 4.0 -16.3°
Sets 03:08:40 0° 186° (S) 2,874 5.0 -15.8°
